Location: Newark
(42.9277°N, 71.8621°W)
Time: 05:42:28
(UTC+00:00)

Explorer 7 - Visible Passes

Search period start: 06 June 2020 00:00
Search period end: 16 June 2020 00:00
Orbit: 485 x 679 km, 50.3° (Epoch: 05 June)

Date Brightness Start Highest point End Pass type
(mag) Time Alt. Az. Time Alt. Az. Time Alt. Az.
06 Jun 7.7 01:57:39 10° WSW 02:02:31 64° NNW 02:07:14 10° ENE visible
06 Jun 8.8 03:39:21 10° WNW 03:43:44 33° N 03:47:56 10° ENE visible
06 Jun 8.3 05:20:40 10° NW 05:25:07 41° NNE 05:29:18 10° E visible
06 Jun 6.8 07:01:25 10° WNW 07:05:56 66° SW 07:10:07 10° SE visible
07 Jun 8.2 02:02:41 10° W 02:07:26 49° NNW 02:12:03 10° NE visible
07 Jun 8.9 03:44:25 10° WNW 03:48:46 33° N 03:52:55 10° ENE visible
07 Jun 7.9 05:25:31 10° NW 05:30:05 51° NNE 05:34:22 10° E visible
07 Jun 7.2 07:06:22 10° WNW 07:10:38 43° SW 07:14:39 10° SSE visible
08 Jun 8.6 02:07:46 10° W 02:12:24 41° NNW 02:16:52 10° NE visible
08 Jun 8.8 03:49:25 10° WNW 03:53:48 34° N 03:57:59 10° ENE visible
08 Jun 7.3 05:30:19 10° WNW 05:34:59 68° NNE 05:38:25 16° ESE visible
08 Jun 8.0 07:11:26 10° WNW 07:14:27 26° WSW 07:14:27 26° WSW visible
09 Jun 8.8 02:12:53 10° WNW 02:17:24 36° N 02:21:46 10° ENE visible
09 Jun 8.5 03:54:21 10° WNW 03:58:50 37° N 04:03:05 10° E visible
09 Jun 6.9 05:35:08 10° WNW 05:39:49 87° SSW 05:40:22 68° SE visible
10 Jun 8.9 02:17:59 10° WNW 02:22:25 34° N 02:26:43 10° ENE visible
10 Jun 8.2 03:59:14 10° NW 04:03:49 44° NNE 04:07:18 15° E visible
10 Jun 7.5 05:40:00 10° WNW 05:43:31 45° W 05:43:31 45° W visible
11 Jun 8.8 02:23:02 10° WNW 02:27:28 33° N 02:31:45 10° ENE visible
11 Jun 7.7 04:04:03 10° WNW 04:08:46 56° NNE 04:10:49 30° E visible
11 Jun 8.6 05:44:57 10° WNW 05:47:03 23° W 05:47:03 23° W visible
12 Jun 8.7 02:28:01 10° WNW 02:32:30 35° N 02:36:50 10° ENE visible
12 Jun 7.2 04:08:52 10° WNW 04:13:39 75° NNE 04:14:34 55° E visible
12 Jun 9.3 05:50:06 10° W 05:50:49 13° W 05:50:49 13° W visible
13 Jun 8.4 02:32:55 10° WNW 02:37:31 40° NNE 02:41:55 10° E visible
13 Jun 6.9 04:13:41 10° WNW 04:18:27 79° SW 04:18:27 79° SW visible
14 Jun 8.8 00:56:38 10° WNW 01:01:07 34° N 01:05:30 10° ENE visible
14 Jun 8.0 02:37:47 10° NW 02:42:30 48° NNE 02:46:11 15° E visible
14 Jun 7.6 04:18:34 10° WNW 04:22:27 47° WSW 04:22:27 47° WSW visible
15 Jun 8.8 01:01:39 10° WNW 01:06:09 34° N 01:10:32 10° ENE visible
15 Jun 7.5 02:42:36 10° WNW 02:47:25 61° NNE 02:50:15 23° E visible
15 Jun 8.4 04:23:34 10° WNW 04:26:31 29° WSW 04:26:31 29° WSW visible
